RH
50 49 50 50 48 46 48 55 63 70 71 64 60 63 69 75 78 68 57 58 61 60 60 61 62 60 53 50 52 52 46 37 25 14 10 14 18 21 21 21 22 25 24 16 8 5 5 5 5 5 7 8 10 11 12 12 11 12 14 14 15 15 14 13 12 11 10 10 9 8 8 7 6 6 6 6 6 7 7 8 8 9 9 9 9
49 47 46 48 50 50 54 62 70 76 75 69 66 71 81 90 92 81 69 69 70 65 60 61 64 61 55 53 53 50 41 28 16 10 11 16 20 22 22 22 24 25 19 10 6 6 6 6 5 6 7 8 10 11 12 13 13 13 13 13 12 11 10 10 8 7 7 6 6 6 5 5 6 6 7 7 8 8 9 9 9 9 9 9 9
63 59 55 59 63 65 67 71 77 80 76 74 78 88 96 99 97 89 81 77 72 65 61 61 61 59 57 55 51 45 32 18 10 10 14 18 21 22 22 24 26 22 13 7 7 7 7 6 6 6 7 8 9 9 10 10 10 10 9 9 9 9 9 9 8 7 6 6 6 6 6 6 7 7 8 8 8 8 9 9 9 9 9 9 9
77 72 71 73 72 72 76 72 66 66 70 76 86 95 98 96 93 88 81 75 68 64 61 59 58 58 57 51 46 38 22 11 9 12 16 20 23 23 23 26 25 16 9 9 8 8 8 8 7 7 8 9 8 8 8 7 8 8 9 10 10 10 11 11 10 9 8 8 8 7 8 8 8 8 9 8 9 9 9 9 9 9 9 9 9
81 71 67 65 63 70 80 72 57 57 66 77 89 97 98 95 85 72 65 64 64 63 61 57 57 56 51 47 43 30 14 9 12 15 18 22 23 23 25 27 21 11 10 11 9 9 10 9 9 8 8 8 7 7 7 8 9 9 10 10 11 11 12 12 12 12 11 10 10 9 9 9 9 9 9 9 9 9 10 10 10 11 10 11 11
77 73 64 54 53 66 77 69 56 54 56 65 78 85 83 73 54 43 53 64 64 62 59 57 56 51 47 47 40 21 9 12 16 18 21 23 23 24 27 25 16 10 12 12 10 11 11 10 9 8 7 7 7 8 9 9 10 9 10 10 10 11 12 13 13 13 12 13 12 12 12 12 13 13 13 13 13 14 16 17 18 19 19 20 21
58 68 65 49 42 54 64 58 52 51 50 53 60 62 55 38 25 36 61 69 60 56 57 58 55 50 49 47 32 13 10 15 19 21 23 24 24 26 28 22 12 11 14 12 11 13 11 9 7 6 6 7 8 9 9 9 8 9 9 10 11 12 13 14 15 15 16 17 17 18 18 18 20 20 20 21 21 22 24 25 26 27 28 29 30
46 59 67 62 53 54 56 51 47 47 45 47 53 60 53 30 24 46 63 57 49 49 53 57 54 51 52 44 22 10 13 17 21 24 24 24 25 27 27 18 9 12 14 11 12 12 9 7 6 6 7 7 8 8 7 8 9 10 12 12 14 15 16 18 19 19 21 22 23 24 24 25 26 27 28 28 27 29 30 31 32 32 32 33 34
44 52 66 80 84 77 67 56 47 41 42 50 60 70 61 35 30 49 53 44 41 43 49 54 52 53 54 37 16 11 16 19 23 25 25 25 26 28 25 15 9 13 13 11 12 10 6 6 5 5 6 6 7 7 8 10 12 13 15 16 18 19 21 22 23 24 25 26 27 28 28 30 31 31 32 32 33 34 35 36 37 36 36 36 37
38 43 53 73 86 83 69 55 44 38 41 48 53 58 52 37 37 49 47 38 33 36 47 53 52 56 52 29 12 15 18 20 24 26 26 26 27 28 23 12 9 13 12 11 11 7 5 6 5 5 6 6 8 10 12 14 16 18 20 22 23 24 25 27 28 29 30 30 32 33 33 35 35 36 37 37 39 40 40 41 41 41 40 40 41
43 43 46 59 72 71 57 42 34 34 36 36 33 35 35 34 40 47 42 32 28 34 46 52 54 59 47 21 12 18 19 21 26 26 27 27 27 29 21 9 9 12 10 10 8 5 5 5 4 6 7 9 12 13 16 18 19 22 23 24 26 28 29 31 32 34 35 36 38 38 39 40 40 40 41 41 42 42 44 46 46 46 46 45 45
53 50 50 57 64 60 49 38 34 38 39 32 27 29 36 41 43 41 32 24 25 36 49 55 59 57 38 16 15 20 19 22 26 27 28 28 28 29 21 9 9 11 9 9 6 4 5 4 4 8 9 13 16 17 19 21 21 22 23 23 25 26 28 31 33 35 37 38 40 41 41 41 40 40 41 41 41 42 44 47 48 48 49 48 48
64 60 51 49 50 49 48 44 41 46 52 46 36 33 37 39 36 29 21 18 27 43 54 60 61 53 32 15 16 22 21 22 26 27 29 29 29 30 22 10 8 10 9 7 5 4 4 4 5 9 12 16 18 18 20 20 20 21 20 21 22 23 24 26 28 31 34 36 39 40 41 41 39 39 39 38 40 42 44 46 47 48 49 49 49
70 62 49 42 38 43 61 69 64 60 62 59 53 47 41 36 30 25 19 18 32 51 60 65 65 53 33 18 17 22 23 22 24 27 29 29 29 30 23 11 7 9 8 6 5 4 4 4 6 9 14 17 18 19 20 19 19 19 18 18 18 18 18 19 20 22 24 27 30 32 36 39 39 38 38 38 39 41 42 44 46 46 47 47 47
53 50 51 54 48 44 58 70 68 59 55 59 64 65 60 49 37 30 23 20 36 59 67 68 67 59 42 26 18 20 23 23 22 25 28 29 29 31 27 14 7 8 8 5 5 4 3 4 5 8 13 17 18 19 19 18 17 16 15 15 15 14 14 13 13 13 14 15 16 18 22 26 30 34 36 36 38 40 41 43 45 45 45 45 45
58 57 53 57 60 56 54 56 53 47 43 45 53 61 67 66 55 43 30 23 38 65 77 72 67 64 57 44 29 21 20 21 22 22 25 28 28 30 30 19 8 7 7 5 4 4 3 4 5 6 10 15 18 18 18 18 16 14 14 13 12 12 12 11 10 9 9 9 9 9 10 12 16 22 26 30 35 37 39 42 44 45 44 43 41
75 73 62 56 60 61 61 61 59 54 48 43 45 53 60 62 61 56 46 35 38 59 79 81 76 74 73 67 54 38 24 19 21 21 23 26 28 29 31 25 13 6 6 6 4 4 4 4 4 5 6 10 14 17 18 18 16 15 14 13 12 11 10 10 9 8 8 8 8 7 8 8 9 11 14 20 26 31 35 40 43 45 45 43 39
79 76 70 65 63 61 61 63 64 66 68 71 72 68 58 53 61 71 75 70 63 64 77 89 92 92 92 89 82 68 44 25 19 20 21 24 26 28 30 30 21 9 5 6 5 4 4 4 4 4 5 6 9 13 15 17 17 16 14 13 12 11 10 9 9 8 8 8 8 8 7 7 7 8 8 11 15 20 28 34 39 43 46 44 40
89 83 75 67 64 64 62 61 61 61 69 82 86 77 65 63 72 79 81 85 85 84 88 94 96 98 99 97 96 92 73 44 22 18 20 22 25 27 27 30 28 16 6 4 5 4 4 4 4 4 4 5 6 8 11 13 15 16 15 14 13 11 11 10 9 9 8 8 8 8 8 8 7 7 7 7 8 11 17 24 32 39 44 45 43
96 95 89 78 70 65 59 60 60 55 56 67 73 73 76 81 85 81 75 74 78 84 91 94 92 92 94 95 97 98 90 64 33 19 19 20 22 25 25 28 30 24 12 5 4 4 4 4 4 4 4 4 5 6 7 8 10 12 13 14 14 13 12 11 10 10 9 9 9 9 9 9 8 8 7 7 6 7 9 14 22 31 40 45 45
99 99 98 94 84 74 66 65 67 63 61 62 61 64 74 84 87 85 79 72 70 75 85 91 88 85 85 89 93 93 87 69 41 22 18 19 21 23 24 25 28 28 21 10 4 4 4 4 4 4 4 4 4 4 5 6 7 8 10 11 13 13 13 12 11 11 10 10 10 10 10 10 9 9 8 7 7 7 6 7 12 20 32 41 46
98 100 101 101 95 89 85 82 79 76 72 68 62 58 62 71 80 86 89 87 83 81 83 82 77 71 70 80 93 95 85 68 47 28 19 17 18 21 23 23 23 26 26 19 9 4 4 4 4 4 4 4 4 4 5 5 5 6 7 8 9 11 13 13 13 12 12 11 11 11 11 11 11 10 10 9 8 8 6 6 6 10 20 33 43
79 88 96 101 101 99 98 96 91 85 78 74 68 60 56 61 70 80 88 92 94 92 86 80 75 67 61 70 91 99 86 69 58 48 37 27 19 16 20 24 24 23 25 26 19 9 4 4 4 4 4 4 4 4 4 4 5 5 5 6 7 8 10 12 13 13 12 12 12 12 11 11 11 11 11 11 10 9 8 7 6 6 10 20 33
49 59 72 85 94 99 101 102 99 93 83 77 73 66 60 59 63 68 71 77 87 92 87 80 76 70 60 60 80 97 91 74 68 69 68 61 46 29 20 20 22 23 23 24 25 19 11 5 4 4 5 4 4 5 4 4 4 5 5 5 6 7 8 9 11 12 12 12 12 12 12 11 12 11 11 11 11 10 9 8 7 6 6 9 21
31 34 41 53 66 80 90 98 102 100 92 82 77 74 70 67 66 68 66 68 80 90 92 90 85 77 66 59 68 86 88 77 72 76 79 80 75 64 45 27 20 21 23 22 25 26 21 13 7 4 4 5 4 4 4 5 4 4 5 5 5 6 7 7 8 9 10 11 11 11 11 11 11 11 11 11 10 10 9 9 8 7 6 6 11
27 26 28 32 40 52 65 76 88 97 99 95 86 79 77 74 72 72 68 63 66 76 88 97 98 90 78 67 64 74 83 84 84 84 83 81 81 82 75 53 30 21 21 21 22 25 26 23 16 8 4 4 5 5 4 5 5 5 5 5 5 6 6 7 7 7 7 8 9 9 10 10 10 10 10 10 10 10 9 9 8 8 7 6 6
24 23 23 23 27 34 43 52 62 73 87 98 98 93 90 86 80 79 76 67 62 65 70 80 93 98 93 83 73 70 77 89 95 95 95 96 90 83 81 77 64 49 37 27 21 21 24 26 25 20 12 5 4 5 5 5 5 5 5 5 5 6 6 6 6 7 7 7 8 8 8 8 9 9 9 9 9 9 9 8 8 7 6 6 6
21 21 21 21 20 22 28 36 43 51 60 73 84 90 95 96 92 88 82 72 69 72 69 70 83 95 95 93 88 80 78 88 98 101 100 98 87 72 65 72 82 82 70 51 33 23 21 24 26 26 22 14 7 4 4 5 5 5 5 5 5 5 6 6 6 6 7 6 7 7 7 7 8 8 8 8 8 8 8 7 7 7 7 8 8
14 15 17 18 17 17 18 21 28 37 42 48 55 62 70 79 82 83 81 73 69 72 72 71 79 88 92 96 100 96 89 87 93 100 100 93 83 70 58 56 64 72 72 65 52 35 24 22 24 25 26 24 17 10 5 4 4 5 5 5 6 5 5 6 6 5 6 7 6 7 7 7 8 7 7 8 7 6 7 7 8 11 11 11 11
9 9 10 12 12 13 14 14 16 22 28 34 40 42 44 49 52 57 65 67 65 67 71 75 81 89 95 98 101 100 94 87 88 95 97 94 92 90 79 62 49 46 52 57 57 48 34 24 22 23 24 26 26 22 16 10 5 5 5 4 5 6 5 5 6 6 6 6 6 7 7 6 7 7 6 7 6 6 8 12 14 16 16 14 13
6 7 7 8 9 8 9 11 11 14 17 23 29 32 34 34 33 36 44 52 58 63 68 73 81 89 93 92 94 97 94 90 91 92 89 88 93 99 98 79 58 52 58 57 53 51 44 31 24 23 22 24 26 27 27 24 17 11 8 5 4 5 4 5 5 5 6 6 6 6 6 6 6 6 6 8 10 12 15 18 19 19 18 16 15
9 8 7 8 9 8 7 7 8 9 11 14 19 25 27 27 26 26 29 37 47 57 64 68 75 86 92 92 92 93 91 90 94 95 91 86 85 89 93 85 69 67 76 73 64 63 60 48 34 25 21 23 25 25 27 29 28 24 19 15 11 8 6 6 5 4 5 5 5 5 6 6 7 9 11 14 17 19 20 21 21 20 20 19 17
15 13 11 9 9 8 8 7 6 6 7 9 12 17 21 23 24 24 24 27 33 44 59 69 72 79 89 94 93 92 92 92 96 100 100 94 86 80 80 79 74 75 83 87 86 87 83 73 59 43 28 21 22 25 26 26 27 29 28 25 23 20 17 14 12 10 8 7 8 9 10 11 13 16 18 21 22 23 23 23 23 22 22 21 19
20 19 17 15 14 13 11 8 7 6 6 7 7 9 13 17 20 21 22 24 25 30 44 61 70 76 84 91 94 95 96 95 95 99 102 100 94 86 78 76 77 79 84 91 98 101 99 95 88 76 56 35 22 22 25 26 26 26 27 27 27 28 27 26 25 22 20 18 18 18 19 19 21 22 24 25 25 26 25 24 24 24 24 23 22
23 22 21 19 18 17 15 12 10 8 7 7 7 7 8 11 14 17 19 20 23 24 29 42 59 71 76 81 86 91 95 96 96 99 101 100 99 94 85 79 78 75 74 78 86 93 97 96 92 86 76 61 42 28 22 24 26 27 27 27 27 28 30 31 30 29 28 28 27 26 26 25 25 26 27 28 28 27 26 24 24 24 24 24 24
23 21 20 18 17 17 17 17 16 13 9 8 9 11 11 9 9 13 15 16 19 22 23 29 44 60 73 82 86 87 90 95 97 100 101 101 100 99 93 85 80 75 68 65 69 77 83 86 86 82 77 74 67 50 32 23 23 26 27 28 28 28 30 31 31 31 31 31 31 30 30 29 27 27 28 29 28 27 24 22 21 22 23 24 25
19 19 18 16 14 15 15 17 18 17 14 13 15 19 21 21 17 15 14 13 15 18 20 23 31 46 69 90 94 87 87 93 98 99 101 101 101 101 99 93 86 81 74 65 62 69 78 82 84 80 71 66 69 67 53 35 24 21 24 26 28 29 30 31 31 32 31 32 33 32 31 29 27 26 27 28 27 24 21 19 19 20 22 23 24
18 18 18 17 16 15 14 15 17 18 21 25 31 34 34 34 34 32 25 17 14 15 17 20 23 32 52 78 90 87 86 92 97 98 100 102 100 100 101 98 92 88 84 74 63 66 76 81 79 72 61 53 56 65 67 58 42 27 21 20 22 25 28 30 31 32 32 31 31 30 28 27 25 24 23 23 22 20 18 18 20 21 22 23 24
34 29 25 22 20 18 17 15 15 15 19 28 42 52 53 48 47 48 43 30 21 17 16 18 21 25 35 57 79 87 86 88 93 97 100 101 100 101 102 101 96 93 93 87 75 68 72 79 78 69 57 49 47 54 64 69 64 51 36 25 19 18 21 24 26 28 28 27 25 24 22 21 21 20 19 18 18 18 18 21 24 25 26 26 26
62 58 51 42 32 24 20 18 17 16 16 19 31 50 64 68 70 73 68 53 36 26 20 18 21 23 26 39 62 81 86 85 86 90 93 96 98 99 100 101 100 97 96 93 84 73 70 74 77 73 63 52 46 47 53 62 70 71 62 46 30 21 18 19 21 21 21 20 19 17 17 18 19 19 18 17 17 19 23 28 33 34 32 29 28
66 70 72 69 60 46 32 23 18 17 16 16 19 31 52 72 86 94 94 82 61 42 29 24 24 26 25 29 43 65 81 85 80 78 81 88 95 100 101 100 100 99 98 96 91 80 70 70 74 75 69 59 49 45 47 53 62 73 75 66 50 37 28 24 22 22 22 21 20 21 25 28 27 23 20 19 21 27 35 42 45 42 37 33 30
47 55 64 72 76 70 57 41 28 20 16 16 16 20 34 59 82 94 100 100 88 67 47 35 30 27 26 28 34 47 65 77 79 75 73 77 83 91 97 99 101 101 100 99 96 88 79 76 78 78 77 70 59 50 48 48 53 64 74 75 68 60 53 49 47 45 44 42 42 45 49 47 37 27 22 23 30 42 50 53 52 48 43 38 33
32 37 44 53 62 68 68 61 48 33 20 15 15 17 24 44 70 86 93 99 102 90 70 51 38 30 29 33 34 35 45 63 76 79 77 77 81 83 84 87 96 102 101 97 95 92 87 85 85 84 81 76 66 58 53 50 49 55 65 75 79 78 75 74 74 76 76 73 70 70 67 55 39 28 27 32 44 56 61 58 56 55 52 44 37
25 27 31 37 42 48 55 58 57 50 35 20 13 14 18 31 54 73 83 89 98 99 85 62 41 29 28 34 37 34 34 46 63 76 82 87 94 95 86 79 84 96 101 99 96 95 94 92 89 85 81 75 69 64 60 55 51 50 56 68 79 85 86 87 90 94 94 90 83 78 69 54 38 33 38 47 58 66 66 63 63 64 60 50 39
25 23 24 28 32 35 38 41 47 52 48 34 20 13 13 22 39 57 70 78 86 93 92 78 56 37 28 28 33 37 35 34 43 60 75 83 91 96 89 76 73 83 96 101 100 98 98 97 93 89 84 79 74 69 66 63 60 56 53 57 70 82 87 90 91 91 87 82 80 78 68 53 42 43 50 59 67 71 69 66 67 69 65 54 40
30 27 23 23 25 29 30 30 31 37 45 45 34 19 11 14 25 41 58 70 77 86 93 90 77 61 48 37 29 31 36 35 32 40 56 67 74 83 88 82 73 74 86 97 101 100 100 99 98 95 94 89 82 75 69 68 71 69 60 54 60 70 77 79 80 79 76 74 76 78 71 57 49 53 60 65 71 75 74 71 71 71 66 55 40
34 33 30 25 23 24 25 24 21 21 27 37 40 33 20 12 14 26 44 62 77 88 92 85 72 65 65 59 43 30 30 36 36 34 38 44 50 62 81 93 91 85 87 95 100 100 99 100 99 98 98 99 95 87 78 73 75 77 70 61 57 61 67 70 72 73 73 71 72 76 75 66 58 61 67 69 72 77 79 77 74 72 67 55 40
39 39 37 32 26 23 22 21 19 16 15 21 30 35 30 19 11 15 28 49 71 85 88 82 73 64 64 69 65 48 34 34 37 35 32 35 39 49 66 85 94 95 96 100 102 101 99 99 100 100 100 101 101 96 88 82 79 80 78 72 66 62 62 65 67 69 69 67 66 71 76 73 67 66 71 73 75 80 82 81 79 77 73 61 45
42 41 41 38 32 26 22 20 19 20 19 18 21 30 36 30 18 11 16 34 58 76 82 85 88 84 74 72 73 61 44 39 43 42 35 34 39 47 59 73 86 93 94 94 96 100 101 100 100 100 100 100 101 99 95 89 83 80 82 85 82 73 65 63 64 65 64 62 62 66 72 74 73 73 75 78 80 82 82 81 82 83 80 72 58
42 41 41 39 35 29 23 20 21 27 32 30 25 27 35 36 27 16 13 23 45 66 76 81 91 97 91 82 76 64 49 44 49 52 48 40 39 50 71 86 93 95 94 90 88 91 97 100 102 102 100 100 100 99 97 93 87 82 84 93 96 87 73 65 64 63 61 59 59 61 65 70 74 77 78 80 82 83 82 83 84 84 83 79 72
42 40 38 36 34 29 22 21 28 40 49 49 41 36 39 44 40 27 14 14 30 52 69 77 85 95 99 97 90 81 72 62 56 57 59 52 44 55 82 101 101 98 99 97 91 89 91 95 98 101 102 101 101 99 97 96 92 87 86 92 96 91 80 71 67 64 62 60 58 57 58 64 72 78 82 83 84 85 86 86 83 78 76 78 77
Wind_Speed
19 19 20 20 21 21 21 22 21 21 20 20 21 21 20 20 20 19 18 18 20 22 24 24 23 22 21 20 19 19 19 20 20 18 14 12 11 11 12 14 15 16 18 18 18 15 12 10 9 9 8 8 7 5 4 3 2 2 3 3 3 3 3 3 3 3 3 3 3 3 4 4 4 3 2 2 2 3 4 5 6 7 7 8 7
17 17 17 19 20 20 20 20 19 19 20 21 21 21 19 19 20 19 19 20 21 23 24 24 22 21 20 19 18 18 19 20 19 15 11 10 10 11 12 14 15 17 18 18 15 12 10 9 8 8 8 7 6 5 4 3 2 2 1 1 0 1 1 0 0 1 1 1 1 2 2 2 1 1 1 2 3 4 4 5 6 7 7 7 7
17 17 17 18 19 20 20 19 18 20 22 23 22 21 20 20 20 20 21 22 23 23 24 24 22 21 20 19 18 18 19 19 16 12 10 10 10 11 12 14 15 17 17 16 13 10 8 7 7 7 6 5 4 4 2 1 1 2 3 4 4 3 3 2 2 2 2 2 2 1 1 1 1 2 2 3 4 5 5 6 7 7 7 7 7
19 19 19 20 21 21 20 18 18 19 21 23 23 22 20 20 20 21 24 25 24 23 24 24 22 21 20 19 19 19 18 16 13 10 9 9 9 11 12 14 15 16 16 14 11 8 6 6 5 5 4 2 0 1 3 5 5 6 6 5 5 4 4 4 4 3 3 3 3 2 2 2 3 3 4 5 5 6 6 7 7 8 8 8 9
22 22 22 22 23 22 20 19 19 20 20 21 22 21 20 19 20 22 24 25 23 22 23 23 22 21 20 19 19 19 16 13 11 9 8 8 8 10 12 14 15 15 14 12 9 6 5 3 3 2 2 4 5 6 6 7 6 6 5 4 4 4 4 4 4 4 4 3 3 3 3 3 4 4 5 5 6 6 6 7 8 9 9 10 10
22 22 23 24 24 22 20 20 20 20 20 20 20 20 20 21 21 22 23 22 21 21 22 23 22 21 20 19 19 17 14 10 9 9 8 8 8 10 11 13 13 13 12 10 6 4 2 2 4 5 6 6 7 6 6 5 4 3 3 3 3 3 4 4 4 4 4 4 3 3 3 4 4 5 5 6 6 6 7 7 8 9 9 10 10
21 21 23 25 25 23 21 22 20 19 19 20 20 20 21 22 21 20 20 19 19 21 22 22 22 21 20 19 18 15 11 9 8 9 8 8 8 9 11 12 12 11 10 7 4 2 4 6 7 7 7 7 6 5 4 3 2 1 1 2 3 3 4 4 4 4 4 4 4 4 3 4 4 5 6 6 7 7 7 8 8 9 9 10 10
21 21 22 24 24 22 22 22 21 20 19 19 20 20 21 21 19 18 17 18 18 20 22 22 22 20 20 19 16 12 9 8 8 8 8 8 8 9 10 11 10 9 8 5 2 4 7 8 8 7 6 6 5 4 2 1 1 1 2 3 3 4 4 4 4 4 4 4 4 3 4 4 4 5 6 7 8 8 8 8 9 9 9 10 10
23 22 23 23 23 22 23 24 23 22 19 18 18 19 20 20 18 16 16 17 18 20 21 22 21 20 19 17 14 11 8 7 8 8 8 8 8 9 10 10 8 7 6 2 4 8 9 8 7 6 5 5 4 3 2 2 2 2 2 3 3 3 4 4 4 4 4 4 4 4 4 4 5 6 7 7 8 8 8 8 9 9 10 10 10
25 25 24 24 25 25 25 25 24 23 21 18 17 18 19 18 16 15 16 17 19 20 20 21 21 19 18 16 13 10 8 7 7 8 8 8 9 9 10 9 6 5 3 3 8 10 9 8 6 6 5 4 4 3 3 2 2 2 2 2 3 3 3 4 4 4 4 4 4 5 5 5 6 7 8 8 9 8 8 8 9 10 10 10 11
25 25 24 23 25 26 25 24 23 22 21 18 17 17 17 16 15 14 15 17 18 19 19 20 20 18 16 14 11 10 8 7 7 8 8 8 9 9 9 8 5 3 2 7 10 10 9 8 6 5 5 5 4 4 3 3 2 2 2 2 2 2 3 3 4 4 5 5 5 6 6 6 7 8 8 9 9 9 9 9 10 10 10 10 11
24 25 24 24 25 25 23 21 21 20 19 17 16 16 16 16 15 14 15 15 17 17 17 17 17 16 14 12 10 9 8 8 8 8 8 8 9 9 9 7 4 3 5 9 11 10 9 8 6 6 5 5 5 4 3 3 2 2 1 1 2 2 3 4 4 5 5 6 6 6 7 7 7 8 8 9 9 10 10 10 10 10 11 10 10
23 24 25 26 25 23 20 19 19 19 18 16 15 15 15 16 16 14 13 14 15 14 14 13 13 13 12 11 9 9 8 8 8 8 8 9 9 9 9 7 5 4 7 11 11 10 9 8 6 6 6 6 5 5 4 3 2 2 1 0 1 2 3 4 5 5 5 6 6 6 7 7 7 8 8 9 10 10 10 10 11 11 11 10 10
23 24 26 26 24 21 18 18 18 18 18 18 17 16 16 15 15 14 12 13 13 12 11 11 10 10 10 9 8 8 8 9 9 9 9 9 9 10 10 8 7 7 9 12 12 11 10 9 7 7 6 7 6 5 5 4 3 2 1 1 2 3 4 4 5 5 5 6 7 7 8 8 8 9 9 9 10 10 11 11 11 11 10 10 10
27 28 28 26 24 22 20 20 19 19 19 20 19 18 18 17 15 13 12 13 13 12 11 10 8 8 8 7 7 7 8 9 10 10 10 10 10 10 10 9 8 9 11 13 13 12 11 10 8 7 7 7 7 6 5 5 4 3 2 2 2 3 4 4 5 5 5 6 7 8 8 9 9 9 10 10 11 11 11 11 11 11 11 10 10
28 29 29 27 26 24 23 23 23 23 22 22 22 20 20 18 16 15 14 14 15 14 13 11 9 7 6 6 6 7 8 9 10 11 11 10 10 11 11 10 10 10 12 14 14 13 13 12 10 9 8 8 8 7 7 6 5 4 4 3 3 3 4 4 5 5 5 6 7 8 8 9 10 10 10 10 11 11 11 11 12 12 11 11 10
27 29 29 29 28 26 25 24 24 24 24 24 23 21 20 21 20 17 15 16 17 17 16 14 12 9 7 6 6 7 8 9 10 12 12 12 11 11 11 11 11 12 13 15 16 15 14 14 12 11 10 9 9 9 8 8 7 6 6 5 5 5 5 5 5 5 5 6 6 7 8 9 9 9 10 10 10 11 11 11 12 12 12 11 10
29 29 29 30 29 28 27 26 25 24 24 23 22 21 21 23 22 20 18 18 19 20 20 19 18 17 16 13 10 10 9 10 11 12 14 13 12 12 12 12 12 13 14 16 17 17 16 16 15 13 12 11 10 10 10 9 9 8 8 7 7 6 6 6 5 5 5 5 6 6 7 8 9 10 10 10 10 11 11 11 11 12 12 12 11
32 31 30 30 30 29 27 27 26 26 25 23 21 22 23 23 23 22 22 22 22 22 23 24 24 23 22 21 20 17 13 12 12 13 14 15 13 13 13 14 14 14 15 17 18 18 18 17 17 16 15 14 13 12 11 11 11 10 9 9 9 8 8 7 7 6 6 6 6 6 7 8 9 10 11 11 11 11 11 11 11 12 12 13 12
36 35 32 31 29 29 27 25 25 26 26 25 23 23 23 24 24 24 24 24 23 22 23 23 23 21 20 22 23 21 17 14 13 14 15 15 15 14 14 15 15 15 16 17 19 19 19 19 19 18 17 16 15 14 13 13 12 11 11 11 11 10 10 9 9 8 8 8 7 7 8 9 10 10 11 12 12 12 12 12 12 12 12 13 12
39 37 36 34 31 29 28 27 26 26 27 26 26 26 25 24 23 23 24 25 25 24 23 23 22 21 20 20 20 19 18 15 14 14 15 16 16 15 15 15 16 16 17 18 19 20 20 20 20 20 19 19 18 17 16 15 14 13 13 13 12 12 12 12 11 11 11 11 10 10 9 10 10 11 12 12 13 13 13 13 13 13 12 13 13
44 39 36 36 34 32 32 31 30 29 29 28 28 28 28 26 24 24 24 25 26 26 25 24 23 22 21 20 19 18 18 16 14 13 14 15 17 17 16 16 17 17 18 18 20 21 22 21 22 22 21 21 20 19 18 17 17 16 15 15 14 14 14 14 13 14 13 13 13 12 12 12 12 12 12 13 13 14 14 14 14 14 13 13 13
47 43 39 37 37 36 35 34 33 33 32 30 29 29 29 28 26 25 24 26 27 26 25 24 24 23 22 21 19 18 19 18 16 14 13 13 15 17 18 18 18 18 18 19 20 21 22 23 23 23 23 22 22 21 21 20 19 18 17 17 16 16 16 16 16 16 16 15 15 15 15 14 14 14 14 14 14 14 15 15 15 15 14 13 12
45 45 43 41 41 40 38 37 36 35 34 33 32 31 30 29 28 25 25 27 27 26 25 25 25 24 24 24 21 20 20 20 19 18 17 16 15 16 18 19 19 19 19 19 20 21 23 24 24 24 24 24 24 23 22 22 21 20 19 19 19 18 18 18 18 18 17 17 17 17 17 17 16 16 16 15 15 15 16 16 17 16 16 14 13
42 43 43 42 42 42 42 42 40 39 38 37 36 35 33 33 31 28 27 28 28 27 26 26 25 24 25 26 25 23 23 23 22 22 22 21 20 19 19 20 21 21 20 20 20 22 23 24 25 26 25 25 25 25 24 23 23 22 21 21 20 20 20 20 19 19 19 19 19 19 19 19 18 18 17 17 17 16 17 17 18 18 17 16 14
43 42 42 41 40 40 42 43 43 42 41 41 40 39 38 38 37 34 31 30 30 30 30 29 26 24 25 26 27 27 27 26 25 24 23 22 21 21 21 21 22 22 22 21 21 22 23 24 25 27 27 27 27 26 26 25 24 23 23 22 22 21 21 21 21 21 20 20 20 20 20 20 19 19 18 18 17 17 18 19 19 19 19 17 16
45 45 44 43 42 41 41 41 42 43 44 44 43 42 41 41 41 39 36 33 32 32 32 32 29 26 25 26 27 28 30 30 28 26 25 23 23 23 22 22 22 22 22 23 23 23 24 25 26 27 28 29 29 28 28 27 26 25 25 24 24 23 23 23 22 22 22 21 21 21 21 20 20 19 19 18 18 19 19 20 20 20 20 18 17
49 48 48 47 45 44 42 42 42 42 43 45 46 46 45 44 44 43 41 38 36 34 33 33 32 30 28 27 26 28 30 32 31 29 27 26 26 24 23 23 23 23 23 23 24 24 25 25 27 28 29 29 30 29 29 29 28 27 27 26 26 25 24 24 23 23 23 22 22 22 21 21 20 20 20 20 20 21 22 22 22 21 20 18 17
54 52 52 51 50 48 46 45 44 43 42 43 44 46 47 46 46 46 44 42 39 37 36 36 34 33 31 30 29 29 30 31 31 30 28 27 27 26 25 24 24 24 24 24 24 25 26 26 27 28 29 29 29 29 30 30 30 29 28 28 28 27 26 26 25 24 24 23 23 23 22 22 21 22 22 22 23 24 24 24 22 21 19 17 16
56 54 53 52 52 52 51 49 47 46 45 44 43 44 45 45 45 46 45 44 42 40 40 39 36 34 33 32 31 31 31 31 31 30 30 29 28 28 27 27 25 24 25 25 25 25 27 28 28 28 28 28 28 29 29 30 30 30 30 30 29 29 28 27 27 26 25 25 24 24 24 24 24 24 25 25 25 25 24 23 21 18 17 16 15
51 50 50 49 50 51 52 52 51 49 49 48 47 46 45 45 45 45 45 45 44 43 42 42 39 34 33 33 32 32 32 31 31 31 32 32 31 29 29 28 26 24 25 25 24 24 26 28 29 29 29 29 29 30 29 29 30 30 31 31 31 30 30 29 28 28 27 27 27 26 26 26 26 26 26 26 25 24 23 21 18 16 15 14 14
43 43 44 44 44 45 47 50 52 52 51 51 50 50 48 47 46 45 45 45 45 45 45 44 42 38 35 34 34 34 33 32 32 32 33 33 32 32 31 30 29 29 27 25 22 21 23 26 29 31 31 30 30 31 31 30 30 30 30 30 31 31 30 30 29 30 30 30 29 28 28 28 28 27 26 24 23 22 20 19 17 15 14 14 14
38 38 38 38 39 39 40 42 46 50 52 52 52 52 52 51 49 47 46 45 46 46 46 45 43 41 39 36 35 34 33 33 32 31 32 33 33 34 33 32 32 32 31 28 25 23 23 24 27 29 32 32 33 32 32 31 31 30 30 30 30 29 29 29 29 30 31 31 30 29 29 28 27 25 23 22 21 20 19 18 17 15 14 13 13
35 35 35 34 34 34 35 35 38 43 48 51 52 53 53 53 52 51 49 47 46 47 48 47 45 43 42 40 37 35 34 34 34 33 33 34 34 35 35 34 32 32 31 30 29 27 26 26 27 29 31 33 33 33 33 32 32 31 31 30 29 28 27 27 28 29 29 29 28 28 27 26 25 23 22 21 21 20 19 18 16 15 14 13 13
34 33 34 34 33 32 32 32 33 37 43 47 50 51 53 54 54 53 52 50 48 48 49 49 47 46 45 44 42 40 37 36 35 34 34 35 36 36 35 33 31 31 31 30 29 29 29 30 30 31 31 31 32 33 34 34 33 32 32 31 30 28 27 27 27 27 27 27 27 27 26 25 24 22 21 21 20 20 19 18 16 15 14 13 13
34 33 34 34 34 33 32 32 31 33 38 43 47 49 51 53 54 54 54 53 52 51 50 49 49 48 46 45 44 43 42 39 36 35 35 35 35 35 33 32 31 31 30 30 30 30 31 31 32 32 31 31 31 32 33 34 34 33 33 32 31 30 28 28 28 28 27 26 26 26 26 25 24 22 21 21 20 20 18 17 16 15 13 13 13
33 33 33 34 34 33 33 33 32 31 33 39 44 46 48 50 52 54 54 54 54 53 52 51 50 49 48 46 45 45 45 42 39 38 37 36 35 35 33 31 30 30 30 30 30 30 31 32 33 33 33 32 32 32 32 33 33 33 34 34 33 31 30 29 29 28 27 26 26 27 27 26 24 22 21 20 20 19 18 17 16 14 13 13 12
31 32 32 32 32 33 33 33 33 32 32 35 39 43 45 48 50 52 53 54 55 55 55 53 52 51 51 50 49 49 48 45 42 40 38 36 35 35 34 32 31 30 30 30 30 31 32 33 34 35 34 33 33 32 32 31 32 32 33 34 34 33 31 30 29 29 28 28 28 28 27 26 24 23 21 20 19 19 18 16 15 14 13 12 12
28 30 31 31 32 33 33 32 33 33 34 34 36 39 41 44 46 48 50 53 54 55 56 56 54 53 53 53 51 51 50 47 45 43 41 38 35 33 34 34 33 32 31 31 31 31 32 33 34 35 35 34 33 32 32 31 30 30 31 32 33 32 32 30 29 29 29 29 29 28 27 25 24 22 21 20 19 18 17 15 14 13 13 12 12
26 28 29 30 31 33 34 33 33 33 34 35 36 36 37 39 42 44 46 50 52 54 55 56 55 54 54 54 52 52 51 49 47 47 45 41 38 36 35 35 34 33 33 33 33 33 33 34 35 35 35 34 33 32 32 31 29 28 28 29 29 30 30 29 29 29 29 29 29 27 25 24 23 22 21 19 18 16 15 15 14 14 13 13 13
26 26 27 28 29 30 32 33 33 33 33 34 35 36 35 36 38 40 42 45 49 52 54 55 55 55 55 54 54 53 53 51 49 48 47 45 43 40 37 36 36 36 35 35 35 35 35 35 36 35 35 35 34 32 31 30 29 27 26 26 26 27 27 28 28 28 29 29 27 26 24 23 22 22 21 18 16 15 15 15 15 14 14 14 14
27 27 26 26 26 27 29 30 32 33 33 33 34 35 35 34 35 36 38 40 44 47 51 53 54 55 55 55 55 54 53 52 51 50 48 46 45 44 42 40 39 38 38 38 38 37 36 36 36 36 36 35 34 32 31 30 29 28 26 26 26 26 26 27 27 27 28 27 26 25 24 22 22 21 20 18 17 16 16 15 15 14 14 14 14
27 28 28 27 26 26 27 27 28 30 32 32 33 34 35 34 34 34 36 37 38 42 46 49 52 54 54 54 55 56 55 53 52 51 48 43 41 43 46 46 43 41 41 40 39 38 38 38 38 37 37 36 35 32 30 29 29 29 28 27 26 26 26 27 27 27 27 27 26 25 24 23 22 21 20 18 18 18 17 16 15 15 15 15 15
26 27 28 28 28 27 27 26 26 27 29 31 32 33 34 35 34 34 35 35 36 38 40 44 49 53 55 54 54 56 56 54 53 52 49 43 38 38 44 48 47 44 42 43 42 40 39 38 39 38 38 37 36 33 30 29 28 28 28 28 27 27 27 27 27 27 28 28 28 27 25 24 23 21 20 19 19 18 18 17 16 16 16 16 16
27 27 27 28 29 29 29 28 27 26 26 29 31 32 34 35 36 36 36 35 35 36 36 38 43 50 54 55 55 55 56 56 55 53 51 48 44 40 41 46 49 47 44 44 45 43 41 39 39 38 38 38 38 36 33 30 28 28 27 28 28 29 29 29 29 29 29 29 28 27 25 24 23 22 21 20 20 19 19 18 17 17 17 17 17
28 28 28 28 29 30 31 31 30 27 26 27 29 31 33 35 36 37 36 36 36 35 36 37 39 41 46 52 56 57 56 56 56 55 53 51 49 45 41 41 45 48 47 46 46 45 44 42 40 38 37 38 39 38 36 33 30 29 28 27 28 30 31 32 31 31 29 28 28 27 26 25 24 23 22 21 20 19 19 19 18 18 18 17 17
30 30 30 30 30 31 32 33 32 30 28 27 27 29 32 34 35 36 36 37 36 34 34 35 36 36 39 46 52 57 58 56 55 55 54 52 51 50 45 39 38 42 46 47 47 47 46 45 43 41 40 40 40 40 38 36 33 31 29 29 29 30 32 33 33 32 30 30 28 27 26 26 26 25 24 22 21 20 20 20 20 19 18 18 17
34 33 33 32 32 32 34 35 34 33 31 29 28 28 30 33 35 35 35 36 35 34 33 33 34 36 40 43 46 51 56 57 55 54 54 52 50 51 50 44 39 39 41 44 47 48 48 47 45 44 43 43 42 42 40 38 35 33 32 31 30 31 32 34 34 34 33 31 30 28 27 27 27 27 25 23 22 22 22 22 22 21 19 18 17
38 36 36 35 34 35 36 37 37 35 32 30 30 29 30 32 35 35 35 35 34 34 34 35 35 35 37 41 44 47 51 54 54 54 54 51 49 49 50 47 43 41 41 42 44 47 49 49 48 46 45 44 44 42 41 39 37 34 33 32 32 32 33 34 35 35 35 34 32 30 29 28 28 28 27 26 25 25 24 23 23 22 21 19 18
40 39 38 37 36 36 37 39 38 35 32 31 30 31 31 32 34 35 35 35 34 33 34 36 38 36 33 35 40 45 48 50 51 52 52 51 49 48 46 43 40 40 41 42 44 46 49 50 51 50 47 45 44 42 41 41 40 37 34 33 32 33 34 35 35 36 36 36 34 32 31 30 29 29 29 29 28 27 26 25 25 24 23 22 21
39 38 37 37 36 36 38 39 38 35 31 30 30 31 32 33 35 36 36 36 36 35 34 35 39 40 37 33 34 39 44 48 50 50 50 50 50 49 47 42 39 38 39 39 41 44 47 49 51 51 50 48 46 44 43 43 43 41 38 35 34 34 36 36 35 36 37 37 36 34 33 32 31 31 31 32 31 30 29 28 28 28 27 25 24
Wind_Direction
295 293 292 291 289 287 286 285 287 292 297 301 301 298 295 295 296 299 301 305 310 309 306 303 297 292 289 291 296 301 304 307 308 306 303 298 296 298 302 304 305 305 307 312 315 313 307 302 300 300 303 309 315 319 324 320 290 262 259 261 270 279 282 281 280 279 275 275 277 273 272 277 285 292 295 293 301 313 319 319 317 319 322 324 326
303 300 293 288 286 285 283 286 294 300 300 301 302 298 293 291 294 298 301 305 311 310 307 305 302 297 294 295 299 303 306 307 305 303 298 292 293 298 302 304 304 305 311 317 318 312 303 297 295 294 295 298 302 303 304 301 293 288 277 271 121 117 120 97 30 342 335 332 310 288 283 291 309 329 322 314 321 327 328 326 325 325 325 323 322
304 301 295 291 288 287 290 301 311 308 300 297 298 295 289 286 290 295 297 302 308 307 305 306 306 303 300 299 301 304 306 304 302 298 290 286 291 298 302 303 304 308 314 319 318 310 299 294 293 290 288 291 296 301 313 350 79 98 103 101 97 94 84 69 55 48 52 61 55 48 31 14 4 343 327 325 328 331 330 326 324 323 322 320 319
296 296 295 293 290 291 299 308 307 301 298 298 296 291 286 287 293 295 295 298 302 303 302 305 307 306 303 301 302 305 304 300 296 290 281 281 290 299 301 302 305 311 317 321 319 309 297 293 288 282 277 280 288 102 102 103 102 100 96 89 80 70 61 56 52 52 56 60 56 42 21 359 345 333 328 327 328 328 325 323 323 321 319 319 320
293 293 294 292 292 297 304 303 297 295 299 300 296 290 287 290 296 298 296 297 298 300 303 305 305 304 302 301 303 305 301 294 288 281 275 278 289 296 299 301 306 313 319 323 318 305 295 285 261 227 170 137 126 118 113 109 103 96 87 75 64 54 49 45 44 45 46 47 42 25 5 351 340 333 329 327 326 329 330 330 327 323 321 323 324
290 291 292 290 291 295 298 298 297 299 300 299 297 293 291 293 298 299 298 297 298 302 304 304 304 303 301 302 303 303 297 286 279 275 272 277 288 294 296 301 307 315 321 324 316 295 269 206 176 158 144 136 130 125 120 114 105 94 81 65 51 39 35 35 36 40 42 43 41 29 14 1 351 341 336 335 337 341 344 341 334 330 330 331 331
285 285 285 286 287 291 294 294 296 298 298 298 296 295 296 298 299 299 297 296 299 302 302 301 302 301 300 301 302 299 290 278 271 270 271 277 286 291 295 300 307 316 323 322 301 247 190 170 161 153 148 145 141 139 133 125 112 87 57 47 42 36 33 33 34 38 40 40 37 29 18 9 358 346 340 340 342 346 348 341 334 333 333 335 334
282 280 280 283 286 290 293 294 294 294 294 294 295 296 298 299 297 294 294 296 298 298 298 298 299 299 299 300 299 293 284 271 265 266 270 278 286 290 293 298 306 317 323 315 249 189 173 165 160 157 157 157 157 158 151 145 115 66 45 39 37 33 32 33 32 32 31 29 23 14 8 6 356 344 338 340 342 345 346 339 333 332 334 336 337
282 279 277 279 283 288 291 292 293 292 292 294 297 297 296 296 295 293 293 295 295 294 295 296 297 297 298 299 296 288 276 263 260 263 269 278 284 287 290 295 305 317 319 284 189 175 169 166 164 167 171 173 177 177 162 144 114 78 54 40 33 28 27 26 23 21 18 13 9 2 2 1 350 338 336 338 340 342 343 338 333 332 334 336 338
283 280 279 280 282 286 289 290 289 290 292 294 294 291 289 292 296 297 296 294 292 292 293 294 295 297 298 297 292 284 270 255 255 261 269 278 282 284 287 291 301 314 305 194 175 171 169 171 175 180 186 189 185 177 161 142 118 95 71 49 36 26 23 21 18 16 11 7 4 2 2 357 347 340 338 337 337 338 339 338 335 334 335 338 339
286 283 282 281 281 284 288 288 287 288 291 293 290 284 282 287 293 297 296 293 291 292 293 294 296 299 300 296 289 280 264 250 251 258 266 274 278 280 283 285 291 298 227 177 173 174 176 180 186 192 195 193 186 177 163 149 131 108 83 60 41 30 24 22 18 13 10 7 4 3 2 356 350 346 343 340 338 339 340 338 335 334 336 339 340
287 284 280 277 278 281 285 285 284 286 289 291 291 287 284 285 289 292 291 289 289 291 293 295 299 305 303 296 288 280 262 245 245 253 262 270 273 274 277 276 270 249 193 178 178 182 185 188 192 198 200 195 188 181 171 161 151 134 109 67 39 23 14 11 8 6 3 1 358 357 355 352 349 349 346 343 343 345 344 340 335 334 336 339 341
283 282 279 278 279 280 281 281 281 281 283 285 286 287 286 286 287 289 288 285 285 287 289 292 301 308 306 297 289 281 265 246 240 246 257 264 266 268 270 265 250 221 194 186 187 191 193 195 199 204 204 200 194 189 184 181 175 169 155 41 9 2 358 355 352 350 349 347 345 344 342 341 343 345 344 344 346 349 349 344 339 336 337 341 343
279 280 281 281 281 279 279 280 279 275 274 277 279 281 281 281 283 285 284 278 276 276 278 282 294 304 303 296 289 282 268 250 239 241 251 258 260 262 263 256 238 217 201 194 195 200 201 202 206 210 209 207 205 201 200 200 200 202 222 302 329 335 338 339 338 336 337 336 334 332 331 331 333 335 336 339 343 347 349 347 344 341 341 346 349
279 281 281 281 280 277 274 274 274 272 271 271 273 274 275 276 279 280 276 266 260 260 261 264 276 292 295 292 288 283 273 256 241 236 243 252 255 256 257 252 234 217 207 203 203 207 209 210 212 214 215 215 215 215 216 218 219 224 243 274 298 311 319 324 328 331 333 335 334 332 330 327 326 326 327 330 334 338 343 346 346 345 346 350 353
279 279 279 279 278 277 275 274 274 273 272 271 270 270 273 275 274 272 268 260 250 247 250 253 261 276 289 294 294 287 276 261 245 236 237 245 250 251 252 249 236 220 212 209 209 212 216 217 218 219 220 222 223 225 226 228 229 232 241 256 271 287 298 307 317 324 329 334 338 338 336 331 327 325 325 325 328 331 336 341 345 346 347 351 356
277 277 278 277 275 275 275 275 275 274 272 271 271 271 271 272 269 267 267 263 253 247 246 244 247 259 272 290 305 301 284 268 251 239 234 238 244 246 246 246 239 227 218 214 213 216 220 222 223 224 226 227 229 230 232 233 235 238 243 250 259 268 277 288 301 313 321 327 334 338 337 335 333 333 331 329 328 328 331 336 341 344 345 348 355
277 276 275 274 272 271 271 270 271 271 269 268 270 269 267 267 268 268 269 265 258 251 244 241 251 265 268 271 285 296 290 275 258 243 235 234 238 241 242 243 240 232 224 219 217 218 222 225 226 228 230 231 232 234 235 237 240 243 246 251 256 261 266 273 282 295 306 314 323 330 332 333 335 336 338 338 335 334 332 332 336 339 340 345 353
277 274 270 269 268 267 266 265 265 266 267 268 270 270 267 264 264 267 270 268 262 257 253 254 264 271 268 265 271 279 282 277 265 249 238 234 235 237 238 239 239 235 229 224 221 220 222 225 228 230 232 234 235 238 240 242 244 247 249 253 257 260 263 267 272 280 289 296 305 316 323 327 331 334 337 341 341 340 336 332 332 335 337 340 347
277 273 265 263 264 263 260 260 262 264 268 270 269 267 266 265 262 262 265 267 266 263 261 263 269 273 269 267 270 271 269 269 266 254 242 236 234 235 236 238 238 236 232 228 225 223 224 225 228 230 233 235 237 240 242 245 248 250 253 255 258 260 263 266 269 273 278 283 289 300 310 318 325 329 333 337 340 341 340 337 334 332 333 336 341
277 275 265 259 259 259 258 260 262 264 267 269 268 266 266 267 267 265 264 265 267 267 266 266 269 271 270 269 269 264 257 257 261 255 244 237 234 234 235 237 237 236 234 231 229 227 226 227 228 230 232 235 237 240 243 246 249 252 255 258 260 262 264 266 267 269 273 277 281 288 297 304 313 320 326 332 336 338 340 338 336 333 330 331 334
274 275 267 259 256 255 257 261 264 264 265 266 267 266 265 264 264 266 267 267 267 268 269 268 269 269 267 267 267 258 247 244 250 251 245 239 236 235 235 237 237 237 235 233 231 230 230 230 230 231 232 234 237 239 242 245 249 252 256 258 261 264 265 267 268 269 272 276 279 284 289 294 301 307 314 322 328 333 336 337 336 334 329 326 328
272 272 267 261 258 257 258 259 261 262 263 263 263 262 263 263 262 263 266 267 267 269 270 269 269 269 267 266 264 252 240 237 238 239 242 242 239 237 237 237 238 238 236 235 234 232 232 232 233 234 234 235 237 239 241 245 248 252 255 257 260 263 265 267 268 270 272 276 279 283 286 289 294 298 303 310 317 323 329 332 333 333 329 324 322
274 272 269 264 260 260 260 260 259 258 259 261 260 258 258 260 262 263 263 264 266 269 269 268 269 269 268 267 261 247 237 236 236 238 244 249 247 243 240 239 239 238 237 236 236 235 234 234 235 236 237 238 238 240 241 244 247 250 254 256 259 261 263 265 268 270 273 276 279 282 285 287 291 295 298 302 307 312 319 325 328 330 328 323 318
274 274 273 269 265 261 259 258 258 257 257 258 258 255 254 256 259 261 262 262 265 266 265 264 265 265 264 264 261 250 239 236 238 243 249 251 251 248 245 242 240 239 238 237 237 237 237 236 236 237 238 239 240 241 242 243 245 248 251 254 257 260 263 265 268 270 273 276 279 281 284 287 290 293 296 299 302 305 311 317 321 324 324 320 313
273 273 273 272 270 265 261 257 255 254 255 255 254 253 253 254 256 258 259 260 262 263 262 262 262 258 256 257 257 254 248 242 241 244 247 250 250 248 245 244 242 241 240 239 238 238 238 238 238 238 238 239 240 242 243 243 245 247 249 252 254 257 261 264 267 270 273 276 279 281 284 287 289 291 294 296 299 301 304 309 313 316 317 314 308
271 272 272 271 270 268 265 262 257 253 251 251 251 250 250 252 254 256 257 257 257 258 260 261 259 255 252 252 253 254 252 248 247 247 246 247 248 246 242 239 240 244 245 243 240 240 239 239 240 240 240 239 240 241 243 244 245 246 249 252 254 256 259 262 266 269 271 274 277 280 283 286 287 290 292 293 295 297 300 303 306 308 310 308 303
270 269 269 270 269 268 267 265 263 258 253 250 250 250 249 250 252 254 255 255 254 254 255 256 256 254 252 250 251 252 251 250 252 253 249 247 248 247 242 237 238 243 247 246 243 241 240 239 240 241 242 241 241 241 243 245 246 247 249 252 254 257 259 262 265 268 271 273 276 279 281 284 286 288 289 291 292 294 297 299 301 303 304 302 297
273 270 268 267 267 267 266 264 263 262 259 254 252 251 251 251 251 252 253 252 251 250 250 251 252 253 252 249 249 249 248 248 250 252 251 250 250 249 246 242 238 239 242 243 241 240 240 240 240 240 242 244 244 244 244 245 247 249 250 252 254 257 259 262 265 267 270 272 274 277 279 281 283 285 287 289 290 292 294 296 298 300 299 296 291
276 274 271 267 265 264 263 262 260 259 259 257 255 253 252 252 251 251 251 250 248 247 246 246 247 250 252 251 249 248 246 246 247 247 247 248 247 245 247 247 242 236 236 237 237 238 239 241 241 241 242 244 246 246 247 247 248 249 251 252 255 257 259 262 264 266 268 270 272 274 276 278 280 283 285 288 290 292 293 295 296 296 294 290 286
277 275 273 270 266 263 261 260 259 257 255 254 254 254 253 253 252 251 250 249 247 246 244 243 243 246 250 251 250 248 247 247 245 244 244 245 244 243 245 246 243 237 235 236 236 237 239 242 244 243 242 241 243 244 246 248 249 250 251 253 255 257 259 262 264 266 268 269 271 273 275 278 280 283 286 288 290 291 292 293 293 293 289 285 280
279 276 274 271 269 265 260 258 257 256 254 252 251 251 251 251 251 251 250 248 246 246 246 244 241 241 244 246 246 246 247 247 247 246 246 246 247 245 244 243 240 239 240 239 236 237 240 243 245 246 244 242 242 242 243 245 247 249 251 253 255 257 259 261 264 266 267 269 271 273 276 278 280 283 285 287 288 289 290 290 290 289 285 280 275
283 281 278 274 271 268 263 257 254 254 253 252 249 248 248 248 248 249 249 248 246 246 246 245 243 241 241 241 241 243 245 246 247 247 245 244 245 246 246 244 241 242 244 244 240 239 242 245 247 248 247 245 244 243 243 243 245 246 248 251 254 257 260 262 264 265 267 269 271 273 275 276 279 281 283 284 285 286 287 287 287 285 282 276 271
285 284 282 279 275 272 268 262 255 250 250 250 248 246 245 245 245 245 246 246 246 246 246 245 244 243 241 238 237 239 241 243 244 245 244 243 243 244 246 245 244 244 246 246 244 242 243 246 248 249 249 248 246 246 245 245 246 247 248 250 252 255 258 261 262 264 267 269 270 271 273 274 276 277 279 281 283 284 284 284 283 281 278 275 270
285 284 283 282 279 276 273 269 260 251 246 246 246 244 243 242 242 242 242 242 243 244 245 245 244 243 242 239 237 237 238 238 239 242 243 243 243 243 244 245 246 246 246 245 243 242 243 245 247 248 248 249 249 248 247 247 248 248 249 250 251 253 255 257 260 262 264 267 268 270 271 272 273 274 276 278 280 281 281 281 278 276 274 271 268
285 285 284 283 282 280 276 273 268 259 250 246 245 243 241 240 239 239 238 239 239 241 243 244 243 243 242 241 240 239 237 236 237 239 240 241 241 241 243 245 246 246 244 242 241 242 243 245 248 249 249 249 249 249 248 248 248 249 250 251 252 252 253 255 258 260 263 265 267 269 269 270 271 272 274 276 277 278 278 276 273 271 268 265 262
285 285 284 283 282 280 276 273 271 268 259 251 247 245 242 239 237 236 236 235 236 237 239 240 241 241 241 241 241 239 237 236 236 237 238 238 238 239 241 243 244 244 244 242 241 242 243 245 247 249 250 249 249 249 249 248 248 249 250 251 252 253 253 255 257 260 262 264 265 265 266 268 270 271 272 273 273 273 273 271 269 266 262 259 257
287 285 284 283 281 279 277 273 270 268 265 259 254 250 245 241 238 236 235 234 233 233 235 236 238 238 239 240 240 240 237 235 235 237 238 238 237 238 241 242 240 239 240 241 240 240 242 244 245 247 248 248 248 248 248 248 248 248 249 250 251 252 253 254 256 258 260 260 260 262 264 266 269 270 269 268 268 268 267 266 263 260 256 254 252
294 290 287 284 281 279 277 274 269 266 263 261 260 258 253 246 241 239 237 235 233 232 232 233 234 236 237 238 239 240 238 235 234 236 237 237 236 237 239 240 238 237 238 240 240 241 242 244 245 246 246 246 246 247 248 248 249 248 249 249 250 251 252 253 254 256 257 258 258 260 262 264 265 265 264 262 262 262 261 260 257 255 253 250 247
304 298 293 288 284 279 277 275 271 267 262 259 258 259 258 252 246 243 241 238 235 233 232 232 233 233 234 236 237 238 238 236 234 234 235 235 235 236 236 236 237 238 239 240 240 241 243 244 246 247 247 247 246 246 247 247 248 248 249 249 250 250 250 250 251 253 255 256 257 258 259 259 259 259 258 257 256 255 254 253 253 252 250 247 244
317 311 304 297 290 284 279 276 273 269 265 259 256 256 257 255 250 246 243 240 239 236 233 232 232 232 232 233 235 237 237 237 235 235 235 234 234 235 235 234 235 237 239 240 239 239 242 244 246 247 249 250 248 247 246 245 245 245 245 246 248 248 247 247 248 250 252 254 254 254 253 253 253 253 253 251 249 246 245 246 248 249 248 247 245
325 323 317 309 300 292 286 280 274 270 267 262 257 254 254 254 252 248 243 241 240 238 236 234 233 232 231 231 233 234 235 236 236 236 236 236 236 236 236 234 233 233 234 237 238 237 239 243 245 247 249 251 251 249 248 245 243 241 240 241 242 244 245 245 246 248 251 252 251 250 249 248 248 249 248 245 241 239 239 242 244 245 245 244 244
327 326 324 318 311 302 296 289 280 273 268 264 259 254 252 251 252 250 245 242 240 240 238 236 234 232 231 231 232 233 233 234 235 236 236 236 238 239 239 238 236 233 231 232 234 235 236 239 243 246 248 251 252 251 249 247 244 241 238 238 239 240 243 245 247 249 251 251 250 248 246 244 244 244 243 239 237 237 238 238 239 240 241 241 242
323 325 326 323 318 311 304 298 290 279 271 265 259 255 251 250 249 249 247 244 242 242 240 237 234 233 232 232 232 233 233 233 233 234 234 232 234 239 241 239 238 236 233 230 230 231 232 236 241 245 248 251 252 252 249 247 245 243 239 237 237 238 239 242 245 247 249 249 249 247 246 243 242 240 238 237 237 238 237 235 235 238 240 241 240
314 319 322 324 323 317 310 304 297 288 278 268 260 254 250 248 247 247 246 245 244 243 240 237 234 234 234 234 234 234 234 232 232 233 233 231 231 236 239 238 236 236 235 231 230 230 230 232 237 243 247 250 252 252 250 246 244 242 240 237 236 236 237 238 240 243 245 247 248 248 246 243 240 237 234 234 236 238 237 235 235 237 239 240 239
305 310 315 318 321 319 315 308 302 295 286 275 265 256 250 247 246 245 244 244 244 242 239 236 234 233 235 236 236 236 235 234 233 232 233 232 232 235 238 238 236 236 236 234 232 231 230 231 233 238 245 249 251 252 251 247 244 241 240 237 236 236 236 237 239 241 244 246 247 247 246 244 240 235 233 233 235 237 237 236 236 237 238 239 239
299 303 308 311 315 316 315 311 305 299 291 282 271 260 252 247 245 244 243 242 242 241 239 237 234 233 236 239 238 236 236 236 234 233 233 233 233 234 237 238 237 236 237 237 235 232 231 230 230 232 237 244 248 250 250 249 246 242 240 238 236 236 237 238 239 240 242 244 245 244 244 242 239 236 233 231 233 234 235 236 237 238 238 238 237
294 298 302 306 310 313 313 312 308 302 292 282 274 265 255 247 244 242 241 240 240 238 235 231 229 232 238 243 242 238 236 236 236 234 233 232 232 232 234 237 238 237 236 236 235 232 231 231 230 230 231 235 240 244 247 248 247 243 239 238 237 237 237 238 238 239 239 241 241 241 241 240 238 236 233 231 231 232 233 234 236 239 240 239 237
291 295 298 302 306 310 313 312 309 304 295 282 270 261 254 247 242 239 238 238 238 235 231 226 224 229 238 244 244 240 237 236 236 235 234 232 230 230 232 235 237 237 236 236 235 233 231 231 233 234 233 232 235 240 244 246 245 241 238 237 238 238 237 237 238 238 239 239 238 238 238 238 237 235 233 231 230 230 232 233 235 238 239 239 236
289 292 296 300 303 307 311 311 309 304 297 285 269 257 249 245 240 236 234 234 234 231 228 226 226 229 235 240 241 239 238 238 238 237 235 232 228 226 227 230 233 235 235 236 235 235 233 232 233 235 235 233 233 235 239 242 243 241 238 237 237 238 238 238 237 238 239 239 237 236 236 236 235 234 232 231 231 231 232 233 234 236 237 237 236
289 290 294 298 301 304 309 313 311 304 296 285 271 256 246 241 238 234 230 230 230 228 226 225 227 230 232 234 233 232 233 235 236 236 235 232 227 222 220 222 225 228 230 232 232 233 234 234 234 234 234 235 234 234 235 238 241 241 239 237 236 236 237 237 237 237 239 239 238 236 235 234 234 233 233 232 232 232 232 233 233 234 235 236 236